Port Weller, Ontario

9:27 PM EDT on March 29, 2017 (GMT -0400)
Port Weller

Weather History for CWWZ - December, 2012

Change the Weather History Date:

Tuesday, December 18, 2012

  Actual Average (CYSN) Record (CYSN)
Temperature  
Mean Temperature 41 °F -  
Max Temperature 43 °F 34 °F 44 °F (2006)
Min Temperature 38 °F 24 °F 12 °F (2002)
Degree Days  
Heating Degree Days 24    
Moisture  
Dew Point 38 °F    
Average Humidity 85    
Maximum Humidity 97    
Minimum Humidity 68    
Precipitation  
Precipitation 0.16 in - - ()
Sea Level Pressure  
Sea Level Pressure 29.60 in    
Wind  
Wind Speed 12 mph ()    
Max Wind Speed 21 mph    
Max Gust Speed -    
Averages and records for this station are not official NWS values.
T = Trace of Precipitation, MM = Missing Value Source: Averaged Metar Reports

Daily Weather History Graph

Daily Weather History Graph

Search for Another Location

Airport or City:

Trip Planner

Search our weather history database for the weather conditions in past years. The results will help you decide how hot, cold, wet, or windy it might be!

Date:

Astronomy

Dec. 18, 2012 Rise Set
Actual Time 7:44 AM EST 4:43 PM EST
Civil Twilight 7:11 AM EST 5:15 PM EST
Nautical Twilight 6:35 AM EST 5:51 PM EST
Astronomical Twilight 6:01 AM EST 6:26 PM EST
Moon 11:14 AM EST (12/18) 11:17 PM EST (12/18)
Length of Visible Light 10h 04m
Length of Day
8h 58m
Waxing Crescent, 34% of the Moon is Illuminated
Dec 18
Waxing Crescent
Dec 20
First Quarter
Dec 28
Full
Jan 4
Last Quarter
Jan 11
New

Hourly Weather History & Observations

Time (EST) Temp. Windchill Dew Point Humidity Pressure Visibility Wind Dir Wind Speed Gust Speed Precip Events Conditions
12:00 AM 42.4 °F 38.1 °F 41.4 °F 96% 29.56 in - NE 6.9 mph - 0.01 in   Unknown
1:00 AM 43 °F - 42 °F 92% 29.54 in - North 6.9 mph - -  
1:00 AM 42.6 °F 38.4 °F 41.5 °F 96% 29.54 in - North 6.9 mph - 0.02 in   Unknown
2:00 AM 42.4 °F 36.1 °F 41.5 °F 97% 29.54 in - North 11.5 mph - 0.05 in   Unknown
3:00 AM 42.1 °F 35.2 °F 41.2 °F 97% 29.53 in - NNW 12.7 mph - 0.04 in   Unknown
4:00 AM 42 °F - 41 °F 94% 29.52 in - NW 11.5 mph - -  
4:00 AM 42.1 °F 35.7 °F 40.8 °F 95% 29.52 in - NW 11.5 mph - N/A   Unknown
5:00 AM 42.1 °F 34.9 °F 40.6 °F 95% 29.51 in - NW 13.8 mph - 0.02 in   Unknown
6:00 AM 41.9 °F 34.6 °F 40.5 °F 95% 29.51 in - NNW 13.8 mph - 0.02 in   Unknown
7:00 AM 42 °F - 40 °F 92% 29.52 in - NNW 15.0 mph - -  
7:00 AM 42.1 °F 34.5 °F 40.5 °F 94% 29.52 in - NNW 15.0 mph - 0.02 in   Unknown
8:00 AM 41.7 °F 33.1 °F 40.1 °F 94% 29.53 in - NW 18.4 mph - N/A   Unknown
9:00 AM 41.7 °F 32.6 °F 39.7 °F 93% 29.55 in - NW 20.7 mph - 0.02 in   Unknown
10:00 AM 42 °F - 39 °F 86% 29.57 in - WNW 18.4 mph - -  
10:00 AM 41.7 °F 33.1 °F 39.2 °F 91% 29.57 in - WNW 18.4 mph - N/A   Unknown
11:00 AM 42.1 °F 33.9 °F 38.7 °F 88% 29.59 in - WNW 17.3 mph - N/A   Unknown
12:00 PM 42.4 °F 33.8 °F 37.6 °F 83% 29.58 in - West 19.6 mph - N/A   Unknown
1:00 PM 43 °F - 37 °F 72% 29.59 in - West 19.6 mph - -  
1:00 PM 43.0 °F 34.5 °F 37.0 °F 80% 29.59 in - West 19.6 mph - N/A   Unknown
2:00 PM 43.3 °F 35.2 °F 36.9 °F 78% 29.60 in - West 18.4 mph - N/A   Unknown
3:00 PM 43.0 °F 34.8 °F 36.9 °F 79% 29.62 in - West 18.4 mph - N/A   Unknown
4:00 PM 42 °F - 36 °F 73% 29.65 in - WNW 11.5 mph - -  
4:00 PM 42.4 °F 36.1 °F 36.3 °F 79% 29.65 in - WNW 11.5 mph - N/A   Unknown
5:00 PM 42.6 °F 34.9 °F 36.7 °F 79% 29.66 in - West 16.1 mph - N/A   Unknown
6:00 PM 42.6 °F 34.6 °F 34.9 °F 74% 29.68 in - WNW 17.3 mph - N/A   Unknown
7:00 PM 42 °F - 35 °F 68% 29.70 in - WNW 13.8 mph - -  
7:00 PM 42.4 °F 35.3 °F 35.1 °F 75% 29.70 in - WNW 13.8 mph - N/A   Unknown
8:00 PM 42.1 °F 33.3 °F 35.4 °F 77% 29.72 in - West 19.6 mph - N/A   Unknown
9:00 PM 41.2 °F 32.1 °F 34.5 °F 77% 29.73 in - West 19.6 mph - N/A   Unknown
10:00 PM 40 °F - 35 °F 74% 29.74 in - WSW 11.5 mph - -  
10:00 PM 39.6 °F 32.5 °F 34.5 °F 82% 29.74 in - WSW 11.5 mph - N/A   Unknown
11:00 PM 38.8 °F 31.6 °F 33.8 °F 82% 29.76 in - WSW 11.5 mph - N/A   Unknown